{"data":{"norad_id":69332,"intl_designator":"2026-122D","name":"STARLINK-37833","alt_names":[],"object_type":"PAYLOAD","status":"ACTIVE","operator":null,"country":"US","launch_date":"2026-06-03","launch_site_code":"AFWTR","launch_vehicle":null,"mission":null,"orbit_class":"UNKNOWN","rcs_meters":null,"size_class":null,"mass_kg":null,"dimensions":null,"purposes":["comms"],"wikipedia_slug":null,"has_3d_model":false,"image_url":null,"decayed_at":null,"tle_current":{"epoch":"2026-09-20T00:45:05.311872Z","epoch_age_seconds":69392,"freshness":"FRESH","line1":"1 69332U 26122D   26263.03131148  .00010989  00000+0  34210-3 0  9995","line2":"2 69332  97.2846 291.5992 0001089 109.2299 250.9061 15.33454654 16727","mean_motion":15.33454654,"eccentricity":0.0001089,"inclination_deg":97.2846,"raan_deg":291.5992,"arg_perigee_deg":109.2299,"mean_anomaly_deg":250.9061,"bstar":0.0003421,"rev_number":1672,"period_min":93.905613461981,"perigee_km":464.76917747396,"apogee_km":466.25972476002,"semimajor_km":6843.651451117,"source":"CELESTRAK","updated_at":"2026-09-20T09:00:44.159508Z"}}}